FENGYUN 1C DEB, 31820

Orbit data source: Space-Track

FENGYUN 1C DEB, 31820 is space debris in SSO originally from a launch on Mon, 10 May 1999 UTC launched from the Taiyaun Space Center, China (TSC). Fengyun 1C debris stems from the Chinese weather satellite Fengyun-1C, which was intentionally destroyed by a Chinese anti-satellite missile in 2007. This event dramatically increased the amount of space debris, with thousands of trackable fragments posing hazards to satellites and human spaceflight. The Fengyun 1C debris cloud has become a focal point in discussions about space sustainability and the need for international regulations to prevent the creation of new debris.

Loading next visibility...
Identifier
31820, 1999-025CHJ
Orbit
SSO
Country
Flag of CNCN / PRC
Related business
Manufacturer
Unknown
Mission
Spacecraft
Bus & Motor
Unknown
Mass
Unknown
Launch date (UTC)
1999-05-10 (27 years ago)
Launch vehicle
Unknown
Launch site
Taiyaun Space Center, China (TSC)
Object type
Payload
Rocket body
Debris
Shape & HBR
Unknown shape, 0.1 m
Radar Cross Section
Small (<0.1 m²)

Expand to show TLE details & history
Last TLE update: 3 days ago

TLE from 3 days ago
0 FENGYUN 1C DEB
1 31820U 99025CHJ 26206.54085091  .00011336  00000-0  77978-3 0  9992
2 31820  98.9586  54.8157 0134358   6.4399 353.8507 14.98993310 15774
Epoch: 2026-07-25T12:58Z
TLE epoch observation values (Epoch: 2026-07-25T12:58:49.518Z)
Latitude
-0.00004°
Longitude
-83.14228°
Altitude
480.197 km
Speed
7.676 km/s
True Right ascension
03h 39m 15s
True Declination
0° 00' 00"
Sunlit
Object was in daylight at epoch
Visualization orbit readout
Latitude
Unknown
Longitude
Unknown
Altitude
Unknown
Speed
Unknown
Apparent Right ascension
Unknown
Apparent Declination
Unknown
Sunlit
N/A
Visualization observer readout
Local Sidereal Time
20:35:22
Azimuth
Unknown
Elevation
Unknown
Doppler factor
Unknown
Orbital elements
Apogee altitude
660.385 km
Perigee altitude
473.757 km
Semi-major axis
6,945.208 km
Eccentricity
0.01344
Inclination
98.9586°
RAAN
54.8157°
Arg. of periapsis
6.4399°
True anomaly
353.68298°
Mean anomaly
353.8507°
Eccentric anomaly
353.76712°
Mean motion
3.74986 °/min
Orbital period
96 mins
BSTAR
0.00077978
Loading maneuver chart data...
Computing Atmospheric mass density...

Documentation

Showing up to 5 results
|